{"data":{"norad_id":69759,"intl_designator":"2026-150W","name":"STARLINK-38035","alt_names":[],"object_type":"PAYLOAD","status":"ACTIVE","operator":null,"country":"US","launch_date":"2026-07-02","launch_site_code":"AFWTR","launch_vehicle":null,"mission":null,"orbit_class":"UNKNOWN","rcs_meters":null,"size_class":null,"mass_kg":null,"dimensions":null,"purposes":["comms"],"wikipedia_slug":null,"has_3d_model":false,"image_url":null,"decayed_at":null,"tle_current":{"epoch":"2026-09-20T04:04:53.954688Z","epoch_age_seconds":46325,"freshness":"FRESH","line1":"1 69759U 26150W   26263.17006892  .00005430  00000+0  17043-3 0  9991","line2":"2 69759  97.2849 102.0788 0001746  82.5348 277.6093 15.33441809 13681","mean_motion":15.33441809,"eccentricity":0.0001746,"inclination_deg":97.2849,"raan_deg":102.0788,"arg_perigee_deg":82.5348,"mean_anomaly_deg":277.6093,"bstar":0.00017043,"rev_number":1368,"period_min":93.906400069988,"perigee_km":464.35776044939,"apogee_km":466.74757688168,"semimajor_km":6843.6896686655,"source":"CELESTRAK","updated_at":"2026-09-20T09:00:44.290243Z"}}}